Погода в Удайпуре

Индия     24°33′30″N   73°42′22″E
темп.,
°C
ветер,
м/с
пор.,
м/с
влажн.,
%
обл.,
%
осадки,
мм/ч
давл.,
гПа
погр.,
м
19 апреля, пн
пн1923:30+27ссз331561 0.0 101122
02:30+27сз22158 0.0 101014
05:30+26зсз5112110 0.0 1010191
08:30+32сз88175 0.0 1011678
11:30+36зсз43109 0.0 10094362
14:30+38зсз43995 0.0 10064742
17:30+37з641094 0.0 10044443
20:30+30зсз3615100 0.0 100790
20 апреля, вт
вт2023:30+29з41219100 0.0 1008291
02:30+29з51220100 0.0 1006314
05:30+26зсз51231100 0.0 1006313
08:30+30зюз3426100 0.0 1008406
11:30+35зюз6712100 0.0 10072823
14:30+35з8816100 0.0 10053119
17:30+33з7818100 0.0 10052740
20:30+29з3822100 0.0 1007166
21 апреля, ср
ср2123:30+28з71424100 0.0 1008456
02:30+26зсз51330100 0.0 1008328
05:30+25зсз4929100 0.0 1009160
08:30+29зсз4722100 0.0 1010660
11:30+34зюз61014100 0.0 10103246
14:30+36зюз791113 0.0 10074447
17:30+34з771134 0.0 10064288
20:30+28з3820100 0.0 1009146
22 апреля, чт
чт2223:30+27з4112344 0.0 1010189
02:30+26з4112945 0.0 1009213
05:30+24зсз36383 0.0 100988
08:30+30юз12230 0.0 1011423
11:30+35юз23110 0.0 10103432
14:30+38зюз3380 0.0 10074360
17:30+37з5382 0.0 10064617
20:30+29сз32140 0.0 100917
23 апреля, пт
пт2323:30+27зсз33160 0.0 101024
02:30+27зсз2219100 0.0 100812
05:30+25зсз322114 0.0 100817
08:30+32зсз23144 0.0 1010377
11:30+37ююв4493 0.0 10093612
14:30+39ю5586 0.0 10064685
17:30+37зюз741018 0.0 10054106
20:30+31зюз4101381 0.0 1008188